AAL3056 KMIA-KORD

Flight info

Callsign AAL3056
Flight time 2h 46m
Altitude 38000
Route HURCN4 KPASA Q118 KAILL/N0463F370 Q118 VOSTK/N0461F380 Q118 HEVAN BONNT VEECK5
Aircraft B38M/M-SDE1FGHILORVWXY/HB1

Departure

Time 2026-05-06 20:35
Airport Miami International Airport (KMIA)

Arrival

Time 2026-05-06 23:22
Airport Chicago O'Hare International Airport (KORD)
Time Latitude Longitude Altitude Speed Heading
2026-05-06 20:16 25.79830 -80.28321 17 ft 0 kts 178°
2026-05-06 20:25 25.79849 -80.28321 21 ft 4 kts 178°
2026-05-06 20:26 25.79873 -80.28322 19 ft 4 kts 189°
2026-05-06 20:26 25.79889 -80.28310 21 ft 4 kts 256°
2026-05-06 20:26 25.79890 -80.28281 21 ft 4 kts 273°
2026-05-06 20:26 25.79890 -80.28267 19 ft 0 kts 269°
2026-05-06 20:29 25.79890 -80.28280 21 ft 5 kts 273°
2026-05-06 20:29 25.79920 -80.28314 18 ft 9 kts 344°
2026-05-06 20:29 25.80001 -80.28327 19 ft 15 kts 334°
2026-05-06 20:30 25.80028 -80.28450 17 ft 20 kts 269°
2026-05-06 20:30 25.80018 -80.28758 19 ft 19 kts 267°
2026-05-06 20:30 25.80012 -80.28905 18 ft 20 kts 267°
2026-05-06 20:31 25.80005 -80.29068 18 ft 22 kts 267°
2026-05-06 20:31 25.79996 -80.29243 18 ft 24 kts 267°
2026-05-06 20:31 25.79990 -80.29427 17 ft 25 kts 267°
2026-05-06 20:31 25.79982 -80.29627 17 ft 27 kts 266°
2026-05-06 20:32 25.79973 -80.29838 16 ft 26 kts 268°
2026-05-06 20:32 25.79973 -80.29941 16 ft 0 kts 282°
2026-05-06 20:32 25.79974 -80.29946 16 ft 2 kts 282°
2026-05-06 20:32 25.79974 -80.29950 16 ft 0 kts 282°
2026-05-06 20:33 25.79979 -80.29971 17 ft 7 kts 282°
2026-05-06 20:33 25.80002 -80.30061 16 ft 18 kts 286°
2026-05-06 20:33 25.80041 -80.30136 17 ft 8 kts 347°
2026-05-06 20:34 25.80084 -80.30076 16 ft 16 kts 101°
2026-05-06 20:34 25.80077 -80.29994 15 ft 0 kts 86°
2026-05-06 20:34 25.80078 -80.29982 15 ft 4 kts 86°
2026-05-06 20:34 25.80089 -80.29705 16 ft 79 kts 87°
2026-05-06 20:35 25.80132 -80.28769 24 ft 157 kts 88°
2026-05-06 20:35 25.80219 -80.27419 498 ft 193 kts 86°
2026-05-06 20:35 25.80354 -80.25833 1157 ft 221 kts 86°
2026-05-06 20:35 25.80469 -80.24217 2526 ft 206 kts 87°
2026-05-06 20:36 25.80573 -80.22538 3213 ft 229 kts 86°
2026-05-06 20:36 25.80671 -80.20767 4207 ft 232 kts 86°
2026-05-06 20:36 25.80800 -80.18916 4915 ft 253 kts 75°
2026-05-06 20:36 25.81680 -80.17224 5849 ft 256 kts 43°
2026-05-06 20:37 25.83227 -80.16181 6664 ft 270 kts 17°
2026-05-06 20:37 25.85105 -80.15930 7433 ft 279 kts
2026-05-06 20:37 25.87038 -80.15846 8553 ft 278 kts
2026-05-06 20:37 25.88992 -80.15787 9504 ft 284 kts 356°
2026-05-06 20:38 25.90912 -80.16301 10446 ft 288 kts 343°
2026-05-06 20:38 25.92887 -80.16974 10937 ft 307 kts 344°
2026-05-06 20:38 25.94996 -80.17692 11336 ft 327 kts 344°
2026-05-06 20:38 25.97168 -80.18611 11835 ft 343 kts 331°
2026-05-06 20:39 25.98971 -80.20355 12653 ft 349 kts 310°
2026-05-06 20:39 26.00147 -80.22707 13390 ft 359 kts 295°
2026-05-06 20:39 26.01082 -80.25289 14108 ft 362 kts 296°
2026-05-06 20:39 26.02037 -80.27895 14796 ft 365 kts 295°
2026-05-06 20:40 26.02989 -80.30518 15477 ft 367 kts 295°
2026-05-06 20:40 26.03944 -80.33159 16129 ft 369 kts 295°
2026-05-06 20:40 26.04903 -80.35813 16788 ft 371 kts 295°
2026-05-06 20:40 26.05866 -80.38483 17411 ft 373 kts 294°
2026-05-06 20:41 26.06507 -80.40260 17829 ft 375 kts 294°
2026-05-06 20:41 26.07796 -80.43839 18589 ft 377 kts 294°
2026-05-06 20:41 26.08773 -80.46554 19097 ft 379 kts 294°
2026-05-06 20:41 26.09753 -80.49277 19614 ft 380 kts 294°
2026-05-06 20:42 26.10737 -80.52016 20118 ft 382 kts 294°
2026-05-06 20:42 26.11726 -80.54768 20622 ft 383 kts 294°
2026-05-06 20:42 26.13018 -80.57346 21102 ft 382 kts 309°
2026-05-06 20:42 26.14950 -80.59364 21584 ft 383 kts 326°
2026-05-06 20:43 26.16480 -80.60333 21889 ft 385 kts 333°
2026-05-06 20:43 26.19701 -80.62024 22485 ft 388 kts 334°
2026-05-06 20:43 26.22167 -80.63260 22956 ft 390 kts 334°
2026-05-06 20:43 26.24656 -80.64483 23399 ft 392 kts 335°
2026-05-06 20:44 26.27156 -80.65696 23843 ft 394 kts 334°
2026-05-06 20:44 26.29679 -80.66911 24207 ft 395 kts 334°
2026-05-06 20:44 26.32211 -80.68126 24554 ft 398 kts 334°
2026-05-06 20:44 26.33902 -80.68938 24789 ft 399 kts 334°
2026-05-06 20:45 26.36458 -80.70164 25147 ft 402 kts 334°
2026-05-06 20:45 26.39784 -80.71984 25586 ft 402 kts 323°
2026-05-06 20:45 26.41845 -80.74086 25947 ft 403 kts 313°
2026-05-06 20:45 26.43797 -80.76347 26240 ft 406 kts 313°
2026-05-06 20:46 26.45744 -80.78640 26608 ft 408 kts 313°
2026-05-06 20:46 26.47031 -80.80173 26837 ft 410 kts 312°
2026-05-06 20:46 26.48979 -80.82512 27177 ft 412 kts 312°
2026-05-06 20:46 26.50969 -80.84828 27513 ft 415 kts 317°
2026-05-06 20:47 26.53205 -80.86879 27849 ft 417 kts 319°
2026-05-06 20:47 26.56199 -80.89609 28278 ft 421 kts 319°
2026-05-06 20:47 26.58402 -80.91613 28606 ft 423 kts 319°
2026-05-06 20:47 26.59950 -80.93021 28844 ft 424 kts 319°
2026-05-06 20:48 26.62240 -80.95103 29165 ft 426 kts 319°
2026-05-06 20:48 26.64546 -80.97201 29465 ft 428 kts 319°
2026-05-06 20:48 26.66859 -80.99307 29775 ft 430 kts 319°
2026-05-06 20:48 26.69187 -81.01426 30076 ft 433 kts 319°
2026-05-06 20:49 26.71494 -81.03528 30332 ft 435 kts 319°
2026-05-06 20:49 26.73850 -81.05676 30604 ft 436 kts 319°
2026-05-06 20:49 26.76204 -81.07823 30867 ft 438 kts 319°
2026-05-06 20:49 26.78568 -81.09981 31178 ft 438 kts 319°
2026-05-06 20:50 26.80926 -81.12134 31526 ft 437 kts 318°
2026-05-06 20:50 26.83284 -81.14288 31915 ft 436 kts 318°
2026-05-06 20:50 26.85626 -81.16430 32344 ft 433 kts 318°
2026-05-06 20:50 26.87960 -81.18565 32747 ft 432 kts 318°
2026-05-06 20:51 26.90284 -81.20692 33167 ft 430 kts 318°
2026-05-06 20:51 26.92563 -81.22778 33612 ft 427 kts 318°
2026-05-06 20:51 26.94860 -81.24882 34056 ft 425 kts 318°
2026-05-06 20:51 26.97147 -81.26979 34401 ft 424 kts 318°
2026-05-06 20:52 26.99423 -81.29067 34715 ft 423 kts 317°
2026-05-06 20:52 27.01700 -81.31156 35005 ft 422 kts 317°
2026-05-06 20:52 27.03978 -81.33232 35308 ft 422 kts 320°
2026-05-06 20:52 27.06497 -81.34954 35621 ft 425 kts 327°
2026-05-06 20:53 27.09069 -81.36588 35894 ft 424 kts 326°
2026-05-06 20:53 27.11636 -81.38228 36183 ft 424 kts 326°
2026-05-06 20:53 27.14196 -81.39856 36470 ft 423 kts 326°
2026-05-06 20:53 27.16760 -81.41486 36768 ft 422 kts 326°
2026-05-06 20:54 27.19315 -81.43110 37042 ft 421 kts 326°
2026-05-06 20:54 27.21863 -81.44730 37329 ft 420 kts 326°
2026-05-06 20:54 27.24401 -81.46345 37626 ft 419 kts 326°
2026-05-06 20:54 27.26929 -81.47954 37911 ft 417 kts 326°
2026-05-06 20:55 27.29456 -81.49563 38070 ft 418 kts 326°
2026-05-06 20:55 27.34599 -81.52651 38051 ft 421 kts 333°
2026-05-06 20:56 27.39992 -81.55131 38049 ft 422 kts 333°
2026-05-06 20:56 27.45431 -81.57615 38052 ft 422 kts 333°
2026-05-06 20:57 27.50884 -81.60102 38050 ft 422 kts 333°
2026-05-06 20:57 27.56322 -81.62585 38052 ft 422 kts 333°
2026-05-06 20:58 27.61767 -81.65074 38053 ft 422 kts 333°
2026-05-06 20:58 27.67218 -81.67567 38057 ft 424 kts 333°
2026-05-06 20:59 27.72647 -81.70054 38056 ft 424 kts 333°
2026-05-06 20:59 27.78121 -81.72563 38053 ft 423 kts 333°
2026-05-06 21:00 27.83585 -81.75072 38074 ft 423 kts 333°
2026-05-06 21:00 27.89023 -81.77569 38054 ft 421 kts 333°
2026-05-06 21:01 27.94452 -81.80066 38057 ft 421 kts 333°
2026-05-06 21:01 27.99881 -81.82567 38053 ft 421 kts 333°
2026-05-06 21:02 28.05315 -81.85072 38063 ft 421 kts 333°
2026-05-06 21:02 28.10748 -81.87578 38062 ft 421 kts 333°
2026-05-06 21:03 28.16145 -81.90073 38056 ft 420 kts 332°
2026-05-06 21:03 28.18676 -81.91643 38056 ft 410 kts 320°
2026-05-06 21:03 28.21014 -81.93494 38039 ft 412 kts 321°
2026-05-06 21:04 28.25741 -81.97180 38059 ft 412 kts 321°
2026-05-06 21:04 28.30451 -82.00900 38054 ft 412 kts 321°
2026-05-06 21:05 28.35162 -82.04632 38053 ft 412 kts 321°
2026-05-06 21:05 28.39834 -82.08336 38051 ft 412 kts 321°
2026-05-06 21:06 28.44529 -82.12064 38070 ft 412 kts 320°
2026-05-06 21:06 28.49215 -82.15788 38049 ft 410 kts 320°
2026-05-06 21:07 28.53894 -82.19513 38053 ft 411 kts 320°
2026-05-06 21:07 28.58572 -82.23240 38055 ft 411 kts 320°
2026-05-06 21:08 28.63249 -82.26971 38059 ft 411 kts 320°
2026-05-06 21:08 28.67927 -82.30707 38060 ft 411 kts 320°
2026-05-06 21:09 28.72607 -82.34448 38064 ft 411 kts 320°
2026-05-06 21:09 28.77288 -82.38194 38069 ft 409 kts 320°
2026-05-06 21:10 28.81940 -82.41922 38058 ft 409 kts 320°
2026-05-06 21:10 28.86584 -82.45647 38052 ft 410 kts 320°
2026-05-06 21:11 28.91245 -82.49390 38053 ft 410 kts 320°
2026-05-06 21:11 28.95917 -82.53146 38092 ft 410 kts 320°
2026-05-06 21:12 29.00588 -82.56905 38087 ft 410 kts 320°
2026-05-06 21:12 29.05257 -82.60667 38096 ft 410 kts 319°
2026-05-06 21:13 29.09910 -82.64421 38070 ft 409 kts 319°
2026-05-06 21:13 29.14535 -82.68156 38066 ft 409 kts 319°
2026-05-06 21:14 29.19189 -82.71918 38056 ft 409 kts 319°
2026-05-06 21:14 29.23841 -82.75683 38051 ft 409 kts 319°
2026-05-06 21:15 29.28497 -82.79457 38045 ft 410 kts 319°
2026-05-06 21:15 29.33156 -82.83236 38057 ft 411 kts 319°
2026-05-06 21:16 29.37821 -82.87024 38069 ft 410 kts 319°
2026-05-06 21:16 29.42469 -82.90804 38063 ft 410 kts 319°
2026-05-06 21:17 29.47123 -82.94591 38056 ft 410 kts 319°
2026-05-06 21:17 29.51851 -82.98266 38042 ft 416 kts 328°
2026-05-06 21:18 29.57186 -83.00867 38055 ft 420 kts 330°
2026-05-06 21:18 29.62577 -83.03466 38072 ft 420 kts 330°
2026-05-06 21:19 29.67979 -83.06045 38081 ft 419 kts 330°
2026-05-06 21:19 29.73375 -83.08621 38074 ft 419 kts 330°
2026-05-06 21:20 29.78736 -83.11183 38067 ft 419 kts 330°
2026-05-06 21:20 29.84121 -83.13760 38066 ft 419 kts 330°
2026-05-06 21:21 29.89511 -83.16342 38066 ft 419 kts 329°
2026-05-06 21:21 29.94906 -83.18930 38087 ft 420 kts 329°
2026-05-06 21:22 30.00309 -83.21524 38066 ft 420 kts 329°
2026-05-06 21:22 30.05701 -83.24116 38065 ft 420 kts 329°
2026-05-06 21:23 30.11061 -83.26696 38060 ft 420 kts 329°
2026-05-06 21:23 30.16454 -83.29294 38064 ft 420 kts 329°
2026-05-06 21:24 30.21850 -83.31897 38061 ft 420 kts 329°
2026-05-06 21:24 30.27241 -83.34499 38067 ft 420 kts 329°
2026-05-06 21:25 30.32636 -83.37105 38058 ft 420 kts 329°
2026-05-06 21:25 30.38033 -83.39715 38074 ft 420 kts 329°
2026-05-06 21:26 30.43428 -83.42328 38060 ft 420 kts 329°
2026-05-06 21:26 30.48826 -83.44945 38069 ft 420 kts 329°
2026-05-06 21:27 30.54217 -83.47562 38050 ft 420 kts 329°
2026-05-06 21:27 30.59578 -83.50167 38067 ft 420 kts 329°
2026-05-06 21:28 30.64970 -83.52791 38061 ft 420 kts 329°
2026-05-06 21:28 30.70375 -83.55424 38069 ft 422 kts 329°
2026-05-06 21:29 30.75796 -83.58068 38060 ft 422 kts 329°
2026-05-06 21:29 30.81215 -83.60715 38090 ft 422 kts 328°
2026-05-06 21:30 30.86633 -83.63364 38057 ft 422 kts 328°
2026-05-06 21:30 30.92021 -83.66002 38056 ft 422 kts 328°
2026-05-06 21:31 30.97444 -83.68660 38042 ft 422 kts 328°
2026-05-06 21:31 31.02864 -83.71320 38037 ft 422 kts 328°
2026-05-06 21:32 31.08280 -83.73981 38034 ft 422 kts 328°
2026-05-06 21:32 31.16418 -83.77986 38035 ft 423 kts 328°
2026-05-06 21:33 31.21810 -83.80645 38042 ft 423 kts 328°
2026-05-06 21:33 31.27240 -83.83324 38049 ft 423 kts 328°
2026-05-06 21:34 31.32663 -83.86004 38049 ft 423 kts 328°
2026-05-06 21:34 31.37213 -83.88255 38044 ft 423 kts 328°
2026-05-06 21:35 31.42574 -83.90909 38042 ft 419 kts 328°
2026-05-06 21:35 31.47950 -83.93575 38059 ft 420 kts 328°
2026-05-06 21:36 31.53471 -83.95952 38037 ft 434 kts 340°
2026-05-06 21:36 31.59418 -83.97295 38037 ft 435 kts 339°
2026-05-06 21:37 31.65377 -83.98636 38046 ft 436 kts 339°
2026-05-06 21:37 31.71313 -83.99957 38044 ft 432 kts 339°
2026-05-06 21:38 31.77225 -84.01273 38044 ft 433 kts 339°
2026-05-06 21:38 31.83139 -84.02591 38044 ft 433 kts 339°
2026-05-06 21:39 31.89055 -84.03911 38041 ft 433 kts 339°
2026-05-06 21:39 31.94969 -84.05232 38047 ft 432 kts 338°
2026-05-06 21:40 32.00830 -84.06544 38001 ft 427 kts 338°
2026-05-06 21:40 32.06638 -84.07845 37992 ft 428 kts 338°
2026-05-06 21:41 32.12489 -84.09158 37980 ft 428 kts 338°
2026-05-06 21:41 32.18350 -84.10474 37983 ft 428 kts 338°
2026-05-06 21:42 32.24191 -84.11787 37998 ft 425 kts 338°
2026-05-06 21:42 32.29948 -84.13084 37989 ft 424 kts 338°
2026-05-06 21:43 32.35754 -84.14393 38019 ft 424 kts 338°
2026-05-06 21:43 32.41549 -84.15702 38005 ft 424 kts 338°
2026-05-06 21:44 32.47342 -84.17012 38019 ft 424 kts 338°
2026-05-06 21:44 32.53146 -84.18325 38013 ft 423 kts 337°
2026-05-06 21:45 32.58935 -84.19638 38007 ft 423 kts 337°
2026-05-06 21:45 32.64693 -84.20945 38010 ft 423 kts 337°
2026-05-06 21:46 32.70491 -84.22262 38012 ft 424 kts 337°
2026-05-06 21:46 32.76285 -84.23581 38057 ft 424 kts 337°
2026-05-06 21:47 32.82074 -84.24900 38022 ft 424 kts 337°
2026-05-06 21:47 32.87871 -84.26223 38017 ft 424 kts 337°
2026-05-06 21:48 32.93671 -84.27548 38030 ft 425 kts 337°
2026-05-06 21:48 32.99474 -84.28876 38017 ft 424 kts 337°
2026-05-06 21:49 33.05293 -84.30209 38013 ft 428 kts 337°
2026-05-06 21:49 33.11141 -84.31551 38009 ft 427 kts 337°
2026-05-06 21:50 33.16941 -84.32883 38010 ft 428 kts 337°
2026-05-06 21:50 33.22781 -84.34226 38015 ft 427 kts 337°
2026-05-06 21:51 33.28630 -84.35573 38013 ft 427 kts 337°
2026-05-06 21:51 33.34473 -84.36921 38019 ft 427 kts 337°
2026-05-06 21:52 33.40280 -84.38262 37992 ft 428 kts 337°
2026-05-06 21:52 33.46128 -84.39615 37989 ft 428 kts 337°
2026-05-06 21:53 33.51973 -84.40968 37985 ft 427 kts 337°
2026-05-06 21:53 33.57816 -84.42324 38018 ft 429 kts 336°
2026-05-06 21:54 33.63701 -84.43667 37993 ft 432 kts 337°
2026-05-06 21:54 33.69576 -84.44954 37986 ft 432 kts 337°
2026-05-06 21:55 33.75492 -84.46257 37972 ft 432 kts 337°
2026-05-06 21:55 33.81409 -84.47563 37973 ft 432 kts 337°
2026-05-06 21:56 33.87324 -84.48870 37953 ft 431 kts 337°
2026-05-06 21:56 33.93219 -84.50175 37966 ft 431 kts 337°
2026-05-06 21:57 33.99084 -84.51475 37995 ft 430 kts 337°
2026-05-06 21:57 34.05081 -84.52442 38003 ft 441 kts 343°
2026-05-06 21:58 34.11197 -84.53027 37995 ft 441 kts 342°
2026-05-06 21:58 34.17330 -84.53662 37977 ft 442 kts 342°
2026-05-06 21:59 34.23417 -84.54302 37976 ft 442 kts 342°
2026-05-06 21:59 34.29553 -84.54949 37979 ft 442 kts 342°
2026-05-06 22:00 34.35687 -84.55598 37999 ft 442 kts 341°
2026-05-06 22:00 34.41836 -84.56250 37973 ft 443 kts 341°
2026-05-06 22:01 34.47975 -84.56902 37965 ft 443 kts 341°
2026-05-06 22:01 34.54124 -84.57555 37959 ft 443 kts 341°
2026-05-06 22:02 34.60270 -84.58209 37966 ft 443 kts 341°
2026-05-06 22:02 34.66426 -84.58865 37979 ft 444 kts 341°
2026-05-06 22:03 34.72535 -84.59517 37974 ft 444 kts 341°
2026-05-06 22:03 34.78698 -84.60176 37981 ft 444 kts 341°
2026-05-06 22:04 34.84866 -84.60837 37960 ft 446 kts 341°
2026-05-06 22:04 34.91040 -84.61499 37968 ft 447 kts 340°
2026-05-06 22:05 34.97270 -84.62169 37944 ft 450 kts 340°
2026-05-06 22:05 35.03511 -84.62839 37930 ft 450 kts 340°
2026-05-06 22:06 35.09758 -84.63513 37943 ft 450 kts 340°
2026-05-06 22:06 35.15995 -84.64185 37956 ft 449 kts 339°
2026-05-06 22:07 35.22176 -84.64853 37937 ft 448 kts 339°
2026-05-06 22:07 35.28397 -84.65527 37937 ft 449 kts 339°
2026-05-06 22:08 35.34633 -84.66203 37971 ft 449 kts 339°
2026-05-06 22:08 35.40854 -84.66879 38010 ft 449 kts 339°
2026-05-06 22:09 35.47086 -84.67556 37957 ft 449 kts 339°
2026-05-06 22:09 35.53308 -84.68234 37959 ft 449 kts 339°
2026-05-06 22:10 35.59493 -84.68908 37967 ft 449 kts 339°
2026-05-06 22:10 35.65724 -84.69589 37966 ft 449 kts 338°
2026-05-06 22:11 35.71939 -84.70269 37946 ft 448 kts 338°
2026-05-06 22:11 35.78157 -84.70950 37941 ft 448 kts 338°
2026-05-06 22:12 35.84373 -84.71633 37945 ft 448 kts 338°
2026-05-06 22:12 35.90594 -84.72317 37949 ft 448 kts 338°
2026-05-06 22:13 35.96771 -84.72997 37956 ft 448 kts 338°
2026-05-06 22:13 36.02988 -84.73683 37957 ft 449 kts 338°
2026-05-06 22:14 36.09210 -84.74370 37971 ft 449 kts 338°
2026-05-06 22:14 36.15423 -84.75058 37999 ft 449 kts 338°
2026-05-06 22:15 36.21657 -84.75748 37957 ft 450 kts 338°
2026-05-06 22:15 36.27898 -84.76440 37969 ft 450 kts 338°
2026-05-06 22:16 36.34127 -84.77132 37969 ft 449 kts 338°
2026-05-06 22:16 36.40357 -84.77826 38052 ft 449 kts 338°
2026-05-06 22:17 36.43525 -84.77962 37942 ft 462 kts 345°
2026-05-06 22:17 36.46739 -84.77880 38055 ft 461 kts 344°
2026-05-06 22:17 36.53126 -84.77722 37946 ft 461 kts 345°
2026-05-06 22:18 36.59557 -84.77535 37988 ft 463 kts 345°
2026-05-06 22:18 36.66008 -84.77345 38059 ft 461 kts 344°
2026-05-06 22:19 36.72396 -84.77160 37998 ft 459 kts 344°
2026-05-06 22:19 36.78791 -84.76973 38008 ft 459 kts 344°
2026-05-06 22:20 36.85175 -84.76786 38002 ft 459 kts 344°
2026-05-06 22:20 36.91556 -84.76599 38013 ft 458 kts 344°
2026-05-06 22:21 36.97913 -84.76414 38004 ft 457 kts 344°
2026-05-06 22:21 37.04281 -84.76227 37965 ft 457 kts 344°
2026-05-06 22:22 37.10644 -84.76039 37964 ft 457 kts 344°
2026-05-06 22:22 37.16960 -84.75854 37978 ft 456 kts 343°
2026-05-06 22:23 37.23310 -84.75666 37982 ft 457 kts 343°
2026-05-06 22:23 37.29672 -84.75478 37985 ft 456 kts 343°
2026-05-06 22:24 37.36035 -84.75275 38025 ft 457 kts 343°
2026-05-06 22:24 37.41334 -84.75103 37981 ft 459 kts 343°
2026-05-06 22:25 37.47727 -84.74896 37990 ft 460 kts 343°
2026-05-06 22:25 37.54118 -84.74688 37985 ft 459 kts 343°
2026-05-06 22:26 37.60521 -84.74479 38066 ft 460 kts 343°
2026-05-06 22:26 37.66946 -84.74269 37999 ft 463 kts 343°
2026-05-06 22:27 37.73393 -84.74066 37993 ft 463 kts 343°
2026-05-06 22:27 37.79838 -84.73866 37998 ft 463 kts 343°
2026-05-06 22:28 37.86250 -84.73668 38027 ft 463 kts 343°
2026-05-06 22:28 37.92686 -84.73468 37981 ft 462 kts 343°
2026-05-06 22:29 37.99122 -84.73268 37982 ft 463 kts 343°
2026-05-06 22:29 38.05556 -84.73068 37982 ft 462 kts 343°
2026-05-06 22:30 38.11984 -84.72867 37988 ft 461 kts 342°
2026-05-06 22:30 38.18354 -84.72669 37985 ft 462 kts 342°
2026-05-06 22:31 38.24775 -84.72468 37985 ft 461 kts 343°
2026-05-06 22:31 38.31196 -84.72266 37985 ft 462 kts 342°
2026-05-06 22:32 38.37617 -84.72065 37992 ft 462 kts 343°
2026-05-06 22:32 38.44036 -84.71865 37988 ft 460 kts 342°
2026-05-06 22:33 38.47054 -84.72210 37967 ft 422 kts 327°
2026-05-06 22:33 38.49799 -84.73270 38004 ft 411 kts 324°
2026-05-06 22:33 38.55205 -84.75568 38047 ft 408 kts 322°
2026-05-06 22:34 38.60549 -84.77988 37995 ft 406 kts 321°
2026-05-06 22:34 38.65866 -84.80446 37999 ft 406 kts 321°
2026-05-06 22:35 38.71140 -84.82893 37996 ft 406 kts 321°
2026-05-06 22:35 38.76453 -84.85365 38000 ft 406 kts 321°
2026-05-06 22:36 38.81767 -84.87839 38018 ft 406 kts 320°
2026-05-06 22:36 38.87067 -84.90313 38025 ft 406 kts 320°
2026-05-06 22:37 38.92337 -84.92775 38012 ft 406 kts 320°
2026-05-06 22:37 38.97641 -84.95256 38010 ft 406 kts 320°
2026-05-06 22:38 39.02948 -84.97743 38054 ft 406 kts 320°
2026-05-06 22:38 39.08243 -85.00228 38014 ft 405 kts 320°
2026-05-06 22:39 39.13495 -85.02696 38010 ft 405 kts 321°
2026-05-06 22:39 39.18785 -85.05188 38042 ft 405 kts 320°
2026-05-06 22:40 39.24095 -85.07692 38018 ft 406 kts 320°
2026-05-06 22:40 39.29399 -85.10197 38017 ft 406 kts 320°
2026-05-06 22:41 39.37320 -85.13945 38016 ft 406 kts 320°
2026-05-06 22:42 39.42621 -85.16458 38020 ft 406 kts 320°
2026-05-06 22:42 39.47929 -85.18978 38017 ft 406 kts 320°
2026-05-06 22:43 39.53226 -85.21496 38013 ft 405 kts 320°
2026-05-06 22:43 39.58489 -85.24003 38039 ft 406 kts 320°
2026-05-06 22:44 39.63788 -85.26531 38016 ft 405 kts 320°
2026-05-06 22:44 39.69084 -85.29061 38022 ft 405 kts 320°
2026-05-06 22:45 39.74383 -85.31597 38041 ft 406 kts 320°
2026-05-06 22:45 39.79638 -85.34116 38020 ft 406 kts 320°
2026-05-06 22:46 39.84921 -85.36687 37991 ft 388 kts 312°
2026-05-06 22:46 39.87003 -85.38628 38044 ft 362 kts 303°
2026-05-06 22:46 39.89123 -85.40557 38012 ft 375 kts 309°
2026-05-06 22:47 39.93542 -85.44237 38037 ft 379 kts 309°
2026-05-06 22:47 39.97989 -85.47875 38006 ft 381 kts 310°
2026-05-06 22:48 40.02485 -85.51541 38026 ft 382 kts 310°
2026-05-06 22:48 40.06988 -85.55217 38004 ft 381 kts 310°
2026-05-06 22:49 40.11484 -85.58893 38024 ft 382 kts 310°
2026-05-06 22:49 40.15981 -85.62575 38024 ft 381 kts 310°
2026-05-06 22:50 40.20451 -85.66241 38004 ft 382 kts 310°
2026-05-06 22:50 40.24954 -85.69939 38011 ft 383 kts 310°
2026-05-06 22:51 40.29459 -85.73645 38015 ft 383 kts 310°
2026-05-06 22:51 40.33939 -85.77336 38014 ft 383 kts 310°
2026-05-06 22:52 40.38439 -85.81051 38011 ft 382 kts 310°
2026-05-06 22:52 40.42954 -85.84783 38031 ft 386 kts 310°
2026-05-06 22:53 40.47506 -85.88552 38027 ft 387 kts 310°
2026-05-06 22:53 40.52063 -85.92330 38025 ft 387 kts 310°
2026-05-06 22:54 40.56587 -85.96088 38030 ft 387 kts 310°
2026-05-06 22:54 40.61143 -85.99880 38028 ft 387 kts 310°
2026-05-06 22:55 40.65693 -86.03671 37992 ft 387 kts 310°
2026-05-06 22:55 40.70244 -86.07470 37988 ft 387 kts 310°
2026-05-06 22:56 40.74757 -86.11244 37993 ft 387 kts 310°
2026-05-06 22:56 40.79303 -86.15050 38008 ft 387 kts 310°
2026-05-06 22:57 40.83846 -86.18861 38007 ft 387 kts 310°
2026-05-06 22:57 40.88433 -86.22717 37988 ft 394 kts 311°
2026-05-06 22:58 40.93037 -86.26591 38010 ft 395 kts 311°
2026-05-06 22:58 40.97669 -86.30495 38010 ft 395 kts 311°
2026-05-06 22:59 41.02297 -86.34404 38010 ft 395 kts 311°
2026-05-06 22:59 41.06922 -86.38316 37792 ft 393 kts 311°
2026-05-06 22:59 41.09194 -86.40241 37092 ft 393 kts 311°
2026-05-06 23:00 41.11485 -86.42181 36651 ft 388 kts 311°
2026-05-06 23:00 41.13735 -86.44087 36239 ft 380 kts 310°
2026-05-06 23:00 41.15938 -86.45956 35867 ft 372 kts 309°
2026-05-06 23:00 41.18132 -86.47829 35500 ft 380 kts 309°
2026-05-06 23:01 41.20381 -86.49742 34979 ft 385 kts 309°
2026-05-06 23:01 41.22646 -86.51670 34279 ft 387 kts 308°
2026-05-06 23:01 41.24921 -86.53607 33435 ft 389 kts 308°
2026-05-06 23:01 41.27202 -86.55549 32605 ft 390 kts 309°
2026-05-06 23:02 41.29455 -86.57470 31918 ft 389 kts 309°
2026-05-06 23:02 41.31731 -86.59415 31245 ft 389 kts 310°
2026-05-06 23:02 41.34003 -86.61359 30442 ft 391 kts 310°
2026-05-06 23:02 41.36311 -86.63334 29481 ft 397 kts 310°
2026-05-06 23:03 41.38649 -86.65338 28565 ft 404 kts 311°
2026-05-06 23:03 41.41032 -86.67381 27640 ft 410 kts 313°
2026-05-06 23:03 41.43445 -86.69450 26686 ft 416 kts 314°
2026-05-06 23:03 41.45892 -86.71551 25680 ft 420 kts 316°
2026-05-06 23:04 41.48355 -86.73665 24634 ft 423 kts 317°
2026-05-06 23:04 41.50812 -86.75773 23512 ft 429 kts 320°
2026-05-06 23:04 41.53610 -86.77440 22398 ft 451 kts 335°
2026-05-06 23:04 41.56716 -86.78183 21757 ft 454 kts 344°
2026-05-06 23:05 41.59855 -86.78641 20357 ft 463 kts 346°
2026-05-06 23:05 41.63035 -86.79020 19231 ft 453 kts 347°
2026-05-06 23:05 41.66125 -86.79403 17948 ft 444 kts 346°
2026-05-06 23:05 41.69179 -86.79802 16545 ft 437 kts 347°
2026-05-06 23:06 41.72135 -86.80174 15248 ft 430 kts 347°
2026-05-06 23:06 41.75088 -86.80541 14013 ft 422 kts 347°
2026-05-06 23:06 41.77959 -86.81023 12671 ft 410 kts 344°
2026-05-06 23:06 41.80743 -86.81643 11414 ft 402 kts 346°
2026-05-06 23:07 41.83475 -86.82234 10239 ft 394 kts 347°
2026-05-06 23:07 41.86102 -86.83055 9057 ft 381 kts 334°
2026-05-06 23:07 41.88290 -86.84898 7964 ft 365 kts 317°
2026-05-06 23:07 41.90219 -86.87040 7088 ft 353 kts 318°
2026-05-06 23:08 41.92018 -86.89029 7122 ft 318 kts 317°
2026-05-06 23:08 41.93617 -86.90810 7143 ft 289 kts 317°
2026-05-06 23:08 41.95092 -86.92458 7136 ft 263 kts 316°
2026-05-06 23:08 41.96448 -86.93978 7135 ft 250 kts 316°
2026-05-06 23:09 41.97785 -86.95478 7116 ft 249 kts 316°
2026-05-06 23:09 41.99110 -86.96965 7105 ft 248 kts 316°
2026-05-06 23:09 42.00311 -86.98599 7071 ft 243 kts 300°
2026-05-06 23:09 42.00943 -87.00668 7077 ft 240 kts 279°
2026-05-06 23:10 42.00953 -87.02903 7088 ft 241 kts 260°
2026-05-06 23:10 42.00402 -87.05000 7086 ft 243 kts 244°
2026-05-06 23:10 41.99686 -87.07045 7063 ft 241 kts 258°
2026-05-06 23:10 41.99566 -87.09277 7090 ft 241 kts 269°
2026-05-06 23:11 41.99519 -87.11527 7077 ft 241 kts 269°
2026-05-06 23:11 41.99479 -87.13778 7080 ft 241 kts 269°
2026-05-06 23:11 41.99445 -87.16028 7079 ft 241 kts 269°
2026-05-06 23:11 41.99415 -87.18281 7085 ft 241 kts 269°
2026-05-06 23:12 41.99387 -87.20533 7081 ft 241 kts 269°
2026-05-06 23:12 41.99361 -87.22761 7080 ft 241 kts 269°
2026-05-06 23:12 41.99334 -87.25010 7079 ft 241 kts 269°
2026-05-06 23:12 41.99308 -87.27258 7082 ft 241 kts 269°
2026-05-06 23:13 41.99282 -87.29510 7084 ft 241 kts 269°
2026-05-06 23:13 41.99255 -87.31764 7083 ft 241 kts 269°
2026-05-06 23:13 41.99142 -87.34012 7079 ft 242 kts 265°
2026-05-06 23:13 41.99002 -87.36266 7092 ft 242 kts 267°
2026-05-06 23:14 41.98913 -87.38528 7018 ft 242 kts 268°
2026-05-06 23:14 41.98862 -87.40812 6559 ft 248 kts 270°
2026-05-06 23:14 41.98836 -87.43161 6034 ft 254 kts 270°
2026-05-06 23:14 41.98824 -87.45559 5496 ft 260 kts 270°
2026-05-06 23:15 41.98818 -87.47969 5182 ft 251 kts 270°
2026-05-06 23:15 41.98816 -87.54065 4801 ft 203 kts 271°
2026-05-06 23:16 41.98816 -87.55893 4681 ft 188 kts 271°
2026-05-06 23:16 41.98817 -87.57582 4612 ft 178 kts 271°
2026-05-06 23:16 41.98818 -87.59241 4509 ft 177 kts 271°
2026-05-06 23:16 41.98819 -87.60888 4398 ft 176 kts 271°
2026-05-06 23:17 41.98820 -87.62530 4279 ft 175 kts 271°
2026-05-06 23:17 41.98821 -87.64168 4155 ft 175 kts 271°
2026-05-06 23:17 41.98822 -87.65784 4006 ft 176 kts 271°
2026-05-06 23:17 41.98823 -87.67427 3811 ft 176 kts 271°
2026-05-06 23:18 41.98824 -87.69073 3605 ft 176 kts 271°
2026-05-06 23:18 41.98825 -87.70715 3379 ft 175 kts 271°
2026-05-06 23:18 41.98825 -87.72349 3149 ft 174 kts 272°
2026-05-06 23:18 41.98826 -87.73977 2921 ft 174 kts 272°
2026-05-06 23:19 41.98827 -87.75602 2702 ft 173 kts 272°
2026-05-06 23:19 41.98827 -87.77218 2460 ft 173 kts 272°
2026-05-06 23:19 41.98828 -87.78826 2226 ft 171 kts 272°
2026-05-06 23:19 41.98828 -87.80383 2050 ft 165 kts 272°
2026-05-06 23:20 41.98828 -87.81889 1796 ft 155 kts 272°
2026-05-06 23:20 41.98827 -87.83241 1542 ft 137 kts 272°
2026-05-06 23:20 41.98799 -87.84485 1286 ft 126 kts 272°
2026-05-06 23:20 41.98822 -87.85602 1099 ft 117 kts 274°
2026-05-06 23:21 41.98829 -87.86737 1056 ft 125 kts 270°
2026-05-06 23:21 41.98837 -87.87907 906 ft 119 kts 272°
2026-05-06 23:21 41.98833 -87.88972 731 ft 112 kts 272°
2026-05-06 23:21 41.98830 -87.89913 670 ft 78 kts 270°
2026-05-06 23:22 41.98829 -87.90419 673 ft 46 kts 269°
2026-05-06 23:22 41.98766 -87.90721 673 ft 24 kts 231°
2026-05-06 23:22 41.98635 -87.90873 671 ft 26 kts 220°
2026-05-06 23:22 41.98493 -87.91031 672 ft 27 kts 218°
2026-05-06 23:23 41.98342 -87.91192 673 ft 26 kts 218°
2026-05-06 23:23 41.98244 -87.91187 672 ft 16 kts 131°
2026-05-06 23:23 41.98181 -87.91056 671 ft 17 kts 83°
2026-05-06 23:23 41.98235 -87.90902 671 ft 19 kts 64°
2026-05-06 23:24 41.98281 -87.90721 670 ft 22 kts 80°
2026-05-06 23:24 41.98288 -87.90508 670 ft 24 kts 92°
2026-05-06 23:24 41.98288 -87.90281 671 ft 26 kts 90°
2026-05-06 23:24 41.98286 -87.90032 672 ft 27 kts 91°
2026-05-06 23:25 41.98289 -87.89769 673 ft 29 kts 90°
2026-05-06 23:25 41.98255 -87.89523 672 ft 21 kts 137°
2026-05-06 23:25 41.98142 -87.89381 670 ft 23 kts 134°
2026-05-06 23:25 41.98055 -87.89343 671 ft 11 kts 220°
2026-05-06 23:26 41.97999 -87.89429 671 ft 14 kts 230°
2026-05-06 23:26 41.97915 -87.89522 671 ft 18 kts 188°
2026-05-06 23:26 41.97787 -87.89516 671 ft 20 kts 186°
2026-05-06 23:26 41.97638 -87.89527 671 ft 24 kts 181°
2026-05-06 23:27 41.97462 -87.89526 671 ft 25 kts 181°
2026-05-06 23:27 41.97319 -87.89625 671 ft 23 kts 236°
2026-05-06 23:27 41.97261 -87.89789 670 ft 17 kts 272°
2026-05-06 23:27 41.97334 -87.89880 671 ft 16 kts 329°
2026-05-06 23:28 41.97416 -87.89937 671 ft 6 kts 320°
2026-05-06 23:28 41.97430 -87.89972 671 ft 4 kts 284°
2026-05-06 23:28 41.97432 -87.89988 671 ft 0 kts 275°
2026-05-06 23:28 41.97432 -87.89991 671 ft 0 kts 275°